User: anonymous   Login
Location: Unspecified
(0.0000°N, 0.0000°E)
Time: 10:53:48
(UTC+00:00)
Language:

STARLINK-2588 - Orbit

View from above orbital plane
View from above orbital plane
View from above satellite
View from above satellite

Ground track
Ground track

The orbit is defined by the following mean orbital elements,

1 48398U          26145.55318531 +.00000000 +00000-0 +12833-2 0 00003
2 48398  53.0705 348.1885 0003126  29.7138 330.4034 15.19144665    02
Epoch (UTC): 25 May 2026 13:16:35
Eccentricity: 0.0003126
inclination: 53.0705°
perigee height: 506 km
apogee height: 511 km
right ascension of ascending node: 348.1885°
argument of perigee: 29.7138°
revolutions per day: 15.19144665
mean anomaly at epoch: 330.4034°

The dashed part of the orbit path shows where the satellite is in the earth's shadow,  

DLR